This demonstration page uses our WeatherBlox Daily Observations layout. Learn more.

36.17497, -115.13722

Hourly Observations for February 3, 2016

Temp ( °F °C ) Dew Point ( °F °C ) Humidity (%) Winds ( mph kmh ) Pressure ( in mb ) Visibility ( mi km ) Precip ( " mm )
12:53 am 00:53 Clear 34 1.1 16 -8.9 48 48 Calm 30.38 1029 10 16.0934 0 0
1:53 am 01:53 Clear 34 1.1 16 -8.9 48 48 Calm 30.4 1030 10 16.0934 0 0
2:53 am 02:53 Clear 32 0 16 -8.9 52 52 Calm 30.41 1030 10 16.0934 0 0
3:53 am 03:53 Clear 32 0 14 -10 47 47 NNW 8 13 30.42 1030 10 16.0934 0 0
4:53 am 04:53 Clear 31 -0.6 14 -10 49 49 NE 3 6 30.43 1031 10 16.0934 0 0
5:53 am 05:53 Clear 30 -1.1 15 -9.4 54 54 SSW 3 6 30.45 1031 10 16.0934 0 0
6:53 am 06:53 Sunny 32 0 13 -10.6 45 45 NNW 7 11 30.47 1032 10 16.0934 0 0
7:53 am 07:53 Sunny 32 0 16 -8.9 52 52 E 5 7 30.51 1033 10 16.0934 0 0
8:53 am 08:53 Sunny 35 1.7 14 -10 42 42 Calm 30.53 1034 10 16.0934 0 0
9:53 am 09:53 Sunny 38 3.3 14 -10 37 37 Calm 30.54 1034 10 16.0934 0 0
10:53 am 10:53 Sunny 40 4.4 13 -10.6 33 33 Calm 30.52 1034 10 16.0934 0 0
11:53 am 11:53 Sunny 44 6.7 11 -11.7 26 26 VRB 5 7 30.5 1033 10 16.0934 0 0
12:53 pm 12:53 Sunny 45 7.2 9 -12.8 23 23 Calm 30.48 1032 10 16.0934 0 0
1:53 pm 13:53 Sunny 46 7.8 9 -12.8 22 22 WNW 5 7 30.46 1032 10 16.0934 0 0
2:53 pm 14:53 Sunny 47 8.3 6 -14.4 19 19 Calm 30.46 1031 10 16.0934 0 0
3:53 pm 15:53 Sunny 47 8.3 9 -12.8 21 21 ESE 6 9 30.45 1031 10 16.0934 0 0
4:53 pm 16:53 Sunny 45 7.2 12 -11.1 26 26 ESE 7 11 30.46 1032 10 16.0934 0 0
5:53 pm 17:53 Clear 43 6.1 14 -10 31 31 SE 3 6 30.48 1032 10 16.0934 0 0
6:53 pm 18:53 Clear 43 6.1 14 -10 31 31 Calm 30.49 1033 10 16.0934 0 0
7:53 pm 19:53 Clear 42 5.6 13 -10.6 30 30 Calm 30.5 1033 10 16.0934 0 0
8:53 pm 20:53 Clear 39 3.9 16 -8.9 39 39 Calm 30.52 1033 10 16.0934 0 0
9:53 pm 21:53 Mostly Cloudy 37 2.8 18 -7.8 46 46 Calm 30.52 1034 10 16.0934 0 0
10:53 pm 22:53 Clear 36 2.2 19 -7.2 50 50 W 3 6 30.52 1034 10 16.0934 0 0
11:53 pm 23:53 Clear 35 1.7 21 -6.1 57 57 NNW 6 9 30.52 1033 10 16.0934 0 0

Powered by AerisWeather